Time,TemperatureF,DewpointF,PressureIn,WindDirection,WindDirectionDegrees,WindSpeedMPH,WindSpeedGustMPH,Humidity,HourlyPrecipIn,Conditions,Clouds,dailyrainin,SoftwareType,DateUTC
2013-04-02 00:04:00,50.5,48.6,30.19,WSW,253,0.0,0.0,93,0.00,,,0.01,Wunderground v.1.15,2013-04-02 07:04:00,
2013-04-02 00:10:00,50.5,48.6,30.19,WSW,253,0.0,0.0,93,0.00,,,0.00,Wunderground v.1.15,2013-04-02 07:10:00,
2013-04-02 00:15:00,50.4,48.5,30.19,WSW,253,0.0,0.0,93,0.00,,,0.00,Wunderground v.1.15,2013-04-02 07:15:00,
2013-04-02 00:21:00,50.4,48.5,30.19,WSW,253,0.0,0.0,93,0.00,,,0.00,Wunderground v.1.15,2013-04-02 07:21:00,
2013-04-02 00:26:00,50.4,48.7,30.19,WSW,253,0.0,0.0,94,0.00,,,0.00,Wunderground v.1.15,2013-04-02 07:26:00,
2013-04-02 00:32:00,50.4,48.7,30.19,WSW,253,0.0,0.0,94,0.00,,,0.00,Wunderground v.1.15,2013-04-02 07:32:00,
2013-04-02 00:37:00,50.4,48.7,30.19,WSW,253,0.0,0.0,94,0.00,,,0.00,Wunderground v.1.15,2013-04-02 07:37:00,
2013-04-02 00:43:00,50.3,48.9,30.19,WSW,253,0.0,0.0,95,0.00,,,0.00,Wunderground v.1.15,2013-04-02 07:43:00,
2013-04-02 00:48:00,50.2,48.5,30.19,WSW,253,0.0,0.0,94,0.00,,,0.00,Wunderground v.1.15,2013-04-02 07:48:00,
2013-04-02 00:53:00,50.2,48.5,30.19,WSW,253,0.0,0.0,94,0.00,,,0.00,Wunderground v.1.15,2013-04-02 07:53:00,
2013-04-02 00:59:00,50.1,48.4,30.19,WSW,253,0.0,0.0,94,0.00,,,0.00,Wunderground v.1.15,2013-04-02 07:59:00,
2013-04-02 01:04:00,50.0,48.3,30.19,WSW,253,0.0,0.0,94,0.00,,,0.00,Wunderground v.1.15,2013-04-02 08:04:00,
2013-04-02 01:10:00,49.9,48.2,30.19,WSW,253,0.0,0.0,94,0.00,,,0.00,Wunderground v.1.15,2013-04-02 08:10:00,
2013-04-02 01:15:00,49.8,48.1,30.19,WSW,253,0.0,0.0,94,0.00,,,0.00,Wunderground v.1.15,2013-04-02 08:15:00,
2013-04-02 01:20:00,49.8,48.1,30.20,WSW,253,0.0,0.0,94,0.00,,,0.00,Wunderground v.1.15,2013-04-02 08:20:00,
2013-04-02 01:26:00,49.7,48.0,30.20,WSW,253,0.0,0.0,94,0.00,,,0.00,Wunderground v.1.15,2013-04-02 08:26:00,
2013-04-02 01:31:00,49.7,48.0,30.20,WSW,253,0.0,0.0,94,0.00,,,0.00,Wunderground v.1.15,2013-04-02 08:31:00,
2013-04-02 01:37:00,49.7,48.0,30.20,WSW,253,0.0,0.0,94,0.00,,,0.00,Wunderground v.1.15,2013-04-02 08:37:00,
2013-04-02 01:43:00,49.7,48.3,30.20,WSW,253,0.0,0.0,95,0.00,,,0.00,Wunderground v.1.15,2013-04-02 08:43:00,
2013-04-02 01:48:00,49.7,48.3,30.20,WSW,253,0.0,0.0,95,0.00,,,0.00,Wunderground v.1.15,2013-04-02 08:48:00,
2013-04-02 01:53:00,49.7,48.3,30.20,WSW,253,0.0,0.0,95,0.00,,,0.00,Wunderground v.1.15,2013-04-02 08:53:00,
2013-04-02 01:59:00,49.7,48.3,30.20,WSW,253,0.0,0.0,95,0.00,,,0.00,Wunderground v.1.15,2013-04-02 08:59:00,
2013-04-02 02:05:00,49.6,48.2,30.20,WSW,253,0.0,0.0,95,0.00,,,0.00,Wunderground v.1.15,2013-04-02 09:05:00,
2013-04-02 02:12:00,49.6,48.2,30.20,WSW,253,0.0,0.0,95,0.00,,,0.00,Wunderground v.1.15,2013-04-02 09:12:00,
2013-04-02 02:18:00,49.6,48.5,30.20,WSW,253,0.0,0.0,96,0.00,,,0.00,Wunderground v.1.15,2013-04-02 09:18:00,
2013-04-02 02:23:00,49.5,48.4,30.20,WSW,253,0.0,0.0,96,0.00,,,0.00,Wunderground v.1.15,2013-04-02 09:23:00,
2013-04-02 02:28:00,49.5,48.1,30.20,WSW,253,0.0,0.0,95,0.00,,,0.00,Wunderground v.1.15,2013-04-02 09:28:00,
2013-04-02 02:34:00,49.5,48.4,30.20,WSW,253,0.0,0.0,96,0.00,,,0.00,Wunderground v.1.15,2013-04-02 09:34:00,
2013-04-02 02:40:00,49.5,48.4,30.20,WSW,253,0.0,0.0,96,0.00,,,0.00,Wunderground v.1.15,2013-04-02 09:40:00,
2013-04-02 02:45:00,49.5,48.4,30.20,WSW,253,0.0,0.0,96,0.00,,,0.00,Wunderground v.1.15,2013-04-02 09:45:00,
2013-04-02 02:50:00,49.4,48.3,30.19,WSW,253,0.0,0.0,96,0.00,,,0.00,Wunderground v.1.15,2013-04-02 09:50:00,
2013-04-02 02:55:00,49.4,48.3,30.19,WSW,253,0.0,0.0,96,0.00,,,0.00,Wunderground v.1.15,2013-04-02 09:55:00,
2013-04-02 03:01:00,49.3,48.2,30.19,WSW,253,0.0,0.0,96,0.00,,,0.00,Wunderground v.1.15,2013-04-02 10:01:00,
2013-04-02 03:07:00,49.2,48.1,30.19,WSW,253,0.0,0.0,96,0.00,,,0.00,Wunderground v.1.15,2013-04-02 10:07:00,
2013-04-02 03:13:00,49.1,48.0,30.20,WSW,253,0.0,0.0,96,0.00,,,0.00,Wunderground v.1.15,2013-04-02 10:13:00,
2013-04-02 03:19:00,48.9,47.8,30.20,WSW,253,0.0,0.0,96,0.00,,,0.00,Wunderground v.1.15,2013-04-02 10:19:00,
2013-04-02 03:25:00,48.8,47.7,30.20,WSW,253,0.0,0.0,96,0.00,,,0.00,Wunderground v.1.15,2013-04-02 10:25:00,
2013-04-02 03:30:00,48.6,47.5,30.20,WSW,253,0.0,0.0,96,0.00,,,0.00,Wunderground v.1.15,2013-04-02 10:30:00,
2013-04-02 03:35:00,48.6,47.5,30.20,WSW,253,0.0,0.0,96,0.00,,,0.00,Wunderground v.1.15,2013-04-02 10:35:00,
2013-04-02 03:41:00,48.5,47.4,30.20,WSW,253,0.0,0.0,96,0.00,,,0.00,Wunderground v.1.15,2013-04-02 10:41:00,
2013-04-02 03:47:00,48.6,47.5,30.21,WSW,253,0.0,0.0,96,0.00,,,0.00,Wunderground v.1.15,2013-04-02 10:47:00,
2013-04-02 03:52:00,48.7,47.9,30.21,WSW,253,0.0,0.0,97,0.00,,,0.00,Wunderground v.1.15,2013-04-02 10:52:00,
2013-04-02 03:57:00,48.7,47.9,30.21,WSW,253,0.0,0.0,97,0.00,,,0.00,Wunderground v.1.15,2013-04-02 10:57:00,
2013-04-02 04:03:00,48.8,48.0,30.21,WSW,253,0.0,0.0,97,0.00,,,0.00,Wunderground v.1.15,2013-04-02 11:03:00,
2013-04-02 04:09:00,48.8,48.0,30.21,WSW,253,0.0,0.0,97,0.00,,,0.00,Wunderground v.1.15,2013-04-02 11:09:00,
2013-04-02 04:15:00,48.9,48.1,30.21,WSW,253,0.0,0.0,97,0.00,,,0.00,Wunderground v.1.15,2013-04-02 11:15:00,
2013-04-02 04:21:00,49.0,48.2,30.21,WSW,253,0.0,0.0,97,0.00,,,0.00,Wunderground v.1.15,2013-04-02 11:21:00,
2013-04-02 04:27:00,49.0,48.2,30.21,WSW,253,0.0,0.0,97,0.00,,,0.00,Wunderground v.1.15,2013-04-02 11:27:00,
2013-04-02 04:32:00,49.0,48.2,30.21,WSW,253,0.0,0.0,97,0.00,,,0.00,Wunderground v.1.15,2013-04-02 11:32:00,
2013-04-02 04:37:00,49.0,48.2,30.21,WSW,253,0.0,0.0,97,0.00,,,0.00,Wunderground v.1.15,2013-04-02 11:37:00,
2013-04-02 04:43:00,49.0,48.2,30.21,WSW,253,0.0,0.0,97,0.00,,,0.01,Wunderground v.1.15,2013-04-02 11:43:00,
2013-04-02 04:48:00,49.0,48.2,30.21,WSW,253,0.0,0.0,97,0.00,,,0.01,Wunderground v.1.15,2013-04-02 11:48:00,
2013-04-02 04:54:00,49.0,48.2,30.21,WSW,253,0.0,0.0,97,0.00,,,0.01,Wunderground v.1.15,2013-04-02 11:54:00,
2013-04-02 04:59:00,49.0,48.2,30.21,WSW,253,0.0,0.0,97,0.00,,,0.01,Wunderground v.1.15,2013-04-02 11:59:00,
2013-04-02 05:05:00,49.0,48.2,30.21,WSW,253,0.0,0.0,97,0.00,,,0.01,Wunderground v.1.15,2013-04-02 12:05:00,
2013-04-02 05:12:00,49.0,48.2,30.21,WSW,253,0.0,0.0,97,0.00,,,0.01,Wunderground v.1.15,2013-04-02 12:12:00,
2013-04-02 05:17:00,49.0,48.2,30.21,WSW,253,0.0,0.0,97,0.00,,,0.01,Wunderground v.1.15,2013-04-02 12:17:00,
2013-04-02 05:23:00,49.0,48.2,30.20,WSW,253,0.0,0.0,97,0.00,,,0.01,Wunderground v.1.15,2013-04-02 12:23:00,
2013-04-02 05:29:00,49.0,48.2,30.20,WSW,253,0.0,0.0,97,0.00,,,0.01,Wunderground v.1.15,2013-04-02 12:29:00,
2013-04-02 05:34:00,48.9,48.1,30.20,WSW,253,0.0,0.0,97,0.00,,,0.01,Wunderground v.1.15,2013-04-02 12:34:00,
2013-04-02 05:40:00,48.9,48.1,30.20,WSW,253,0.0,0.0,97,0.00,,,0.01,Wunderground v.1.15,2013-04-02 12:40:00,
2013-04-02 05:45:00,48.9,48.1,30.19,WSW,253,0.0,0.0,97,0.00,,,0.01,Wunderground v.1.15,2013-04-02 12:45:00,
2013-04-02 05:51:00,48.9,48.1,30.19,WSW,253,0.0,0.0,97,0.00,,,0.01,Wunderground v.1.15,2013-04-02 12:51:00,
2013-04-02 05:57:00,48.9,48.1,30.19,WSW,253,0.0,0.0,97,0.00,,,0.01,Wunderground v.1.15,2013-04-02 12:57:00,
2013-04-02 06:03:00,48.9,48.1,30.19,WSW,253,0.0,0.0,97,0.00,,,0.01,Wunderground v.1.15,2013-04-02 13:03:00,
2013-04-02 06:08:00,48.9,48.1,30.19,WSW,253,0.0,0.0,97,0.00,,,0.01,Wunderground v.1.15,2013-04-02 13:08:00,
2013-04-02 06:14:00,48.9,48.1,30.19,WSW,253,0.0,0.0,97,0.00,,,0.01,Wunderground v.1.15,2013-04-02 13:14:00,
2013-04-02 06:20:00,48.9,48.1,30.19,WSW,253,0.0,0.0,97,0.00,,,0.01,Wunderground v.1.15,2013-04-02 13:20:00,
2013-04-02 06:27:00,48.8,48.0,30.19,WSW,253,0.0,0.0,97,0.00,,,0.01,Wunderground v.1.15,2013-04-02 13:27:00,
2013-04-02 06:33:00,48.8,48.0,30.18,WSW,253,0.0,0.0,97,0.00,,,0.01,Wunderground v.1.15,2013-04-02 13:33:00,
2013-04-02 06:38:00,48.8,48.0,30.18,WSW,253,0.0,0.0,97,0.00,,,0.01,Wunderground v.1.15,2013-04-02 13:38:00,
2013-04-02 06:44:00,48.7,47.9,30.18,WSW,253,0.0,0.0,97,0.00,,,0.01,Wunderground v.1.15,2013-04-02 13:44:00,
2013-04-02 06:49:00,48.7,48.2,30.19,WSW,253,0.0,0.0,98,0.00,,,0.01,Wunderground v.1.15,2013-04-02 13:49:00,
2013-04-02 06:54:00,48.7,48.2,30.18,WSW,253,0.0,0.0,98,0.00,,,0.01,Wunderground v.1.15,2013-04-02 13:54:00,
2013-04-02 07:00:00,48.6,48.1,30.19,WSW,253,0.0,0.0,98,0.00,,,0.01,Wunderground v.1.15,2013-04-02 14:00:00,
2013-04-02 07:06:00,48.6,48.1,30.19,WSW,253,0.0,0.0,98,0.00,,,0.01,Wunderground v.1.15,2013-04-02 14:06:00,
2013-04-02 07:12:00,48.7,48.2,30.19,WSW,253,0.0,0.0,98,0.00,,,0.01,Wunderground v.1.15,2013-04-02 14:12:00,
2013-04-02 07:17:00,48.7,48.2,30.19,WSW,253,0.0,0.0,98,0.00,,,0.01,Wunderground v.1.15,2013-04-02 14:17:00,
2013-04-02 07:23:00,48.7,48.2,30.19,WSW,253,0.0,0.0,98,0.00,,,0.01,Wunderground v.1.15,2013-04-02 14:23:00,
2013-04-02 07:28:00,48.8,48.3,30.19,WSW,253,0.0,0.0,98,0.00,,,0.01,Wunderground v.1.15,2013-04-02 14:28:00,
2013-04-02 07:33:00,48.8,48.3,30.19,WSW,253,0.0,0.0,98,0.00,,,0.01,Wunderground v.1.15,2013-04-02 14:33:00,
2013-04-02 07:38:00,48.9,48.4,30.19,WSW,253,0.0,0.0,98,0.00,,,0.01,Wunderground v.1.15,2013-04-02 14:38:00,
2013-04-02 07:44:00,49.0,48.5,30.19,WSW,253,0.0,0.0,98,0.00,,,0.01,Wunderground v.1.15,2013-04-02 14:44:00,
2013-04-02 07:50:00,49.1,48.6,30.19,WSW,253,0.0,0.0,98,0.00,,,0.01,Wunderground v.1.15,2013-04-02 14:50:00,
2013-04-02 07:56:00,49.2,48.7,30.19,WSW,253,0.0,0.0,98,0.00,,,0.01,Wunderground v.1.15,2013-04-02 14:56:00,
2013-04-02 08:02:00,49.2,48.7,30.19,WSW,253,0.0,0.0,98,0.00,,,0.01,Wunderground v.1.15,2013-04-02 15:02:00,
2013-04-02 08:07:00,49.2,48.7,30.19,WSW,253,0.0,0.0,98,0.00,,,0.01,Wunderground v.1.15,2013-04-02 15:07:00,
2013-04-02 08:13:00,49.3,48.8,30.19,WSW,253,0.0,0.0,98,0.00,,,0.01,Wunderground v.1.15,2013-04-02 15:13:00,
2013-04-02 08:18:00,49.4,48.9,30.19,WSW,253,0.0,0.0,98,0.00,,,0.01,Wunderground v.1.15,2013-04-02 15:18:00,
2013-04-02 08:24:00,49.5,49.0,30.19,WSW,253,0.0,0.0,98,0.00,,,0.01,Wunderground v.1.15,2013-04-02 15:24:00,
2013-04-02 08:29:00,49.6,49.1,30.19,WSW,253,0.0,0.0,98,0.00,,,0.01,Wunderground v.1.15,2013-04-02 15:29:00,
2013-04-02 08:37:00,49.6,48.8,30.20,WSW,253,0.0,0.0,97,0.00,,,0.01,Wunderground v.1.15,2013-04-02 15:37:00,
2013-04-02 08:43:00,49.8,49.0,30.20,WSW,253,0.0,0.0,97,0.00,,,0.01,Wunderground v.1.15,2013-04-02 15:43:00,
2013-04-02 08:48:00,49.9,49.1,30.20,WSW,253,0.0,0.0,97,0.00,,,0.01,Wunderground v.1.15,2013-04-02 15:48:00,
2013-04-02 08:55:00,50.1,49.3,30.20,WSW,253,0.0,0.0,97,0.00,,,0.01,Wunderground v.1.15,2013-04-02 15:55:00,
2013-04-02 09:01:00,50.2,49.4,30.20,WSW,253,0.0,0.0,97,0.00,,,0.01,Wunderground v.1.15,2013-04-02 16:01:00,
2013-04-02 09:06:00,50.3,49.5,30.20,WSW,253,0.0,0.0,97,0.00,,,0.01,Wunderground v.1.15,2013-04-02 16:06:00,
2013-04-02 09:11:00,50.5,49.7,30.20,WSW,253,0.0,0.0,97,0.00,,,0.01,Wunderground v.1.15,2013-04-02 16:11:00,
2013-04-02 09:17:00,50.6,49.8,30.20,WSW,253,0.0,0.0,97,0.00,,,0.01,Wunderground v.1.15,2013-04-02 16:17:00,
2013-04-02 09:22:00,50.8,50.0,30.20,WSW,253,0.0,0.0,97,0.00,,,0.01,Wunderground v.1.15,2013-04-02 16:22:00,
2013-04-02 09:28:00,51.0,50.2,30.20,WSW,253,0.0,0.0,97,0.00,,,0.01,Wunderground v.1.15,2013-04-02 16:28:00,
2013-04-02 09:33:00,51.1,50.0,30.20,NNW,327,0.0,1.0,96,0.00,,,0.01,Wunderground v.1.15,2013-04-02 16:33:00,
2013-04-02 09:39:00,51.2,50.1,30.20,NNW,327,1.0,1.0,96,0.00,,,0.01,Wunderground v.1.15,2013-04-02 16:39:00,
2013-04-02 09:45:00,51.5,50.4,30.20,NNW,328,1.0,1.0,96,0.00,,,0.01,Wunderground v.1.15,2013-04-02 16:45:00,
2013-04-02 09:50:00,51.9,50.5,30.20,NE,46,1.0,1.0,95,0.00,,,0.01,Wunderground v.1.15,2013-04-02 16:50:00,
2013-04-02 09:57:00,52.2,50.2,30.20,SE,142,1.0,1.0,93,0.00,,,0.01,Wunderground v.1.15,2013-04-02 16:57:00,
2013-04-02 10:02:00,52.6,50.6,30.20,NE,36,1.0,3.0,93,0.00,,,0.01,Wunderground v.1.15,2013-04-02 17:02:00,
2013-04-02 10:08:00,53.4,51.1,30.20,NE,34,1.0,3.0,92,0.00,,,0.01,Wunderground v.1.15,2013-04-02 17:08:00,
2013-04-02 10:13:00,53.7,50.5,30.20,NE,53,1.0,2.0,89,0.00,,,0.01,Wunderground v.1.15,2013-04-02 17:13:00,
2013-04-02 10:18:00,53.7,50.8,30.20,ESE,123,1.0,2.0,90,0.00,,,0.01,Wunderground v.1.15,2013-04-02 17:18:00,
2013-04-02 10:25:00,53.4,49.6,30.21,ENE,69,1.0,1.0,87,0.00,,,0.01,Wunderground v.1.15,2013-04-02 17:25:00,
2013-04-02 10:31:00,53.4,50.2,30.20,ENE,69,0.0,0.0,89,0.00,,,0.01,Wunderground v.1.15,2013-04-02 17:31:00,
2013-04-02 10:37:00,53.4,50.2,30.21,SSE,165,0.0,2.0,89,0.00,,,0.01,Wunderground v.1.15,2013-04-02 17:37:00,
2013-04-02 10:42:00,53.4,49.9,30.20,SSE,165,0.0,0.0,88,0.00,,,0.01,Wunderground v.1.15,2013-04-02 17:42:00,
2013-04-02 10:49:00,53.7,49.9,30.20,SE,138,0.0,2.0,87,0.00,,,0.01,Wunderground v.1.15,2013-04-02 17:49:00,
2013-04-02 10:54:00,53.7,49.9,30.20,SSE,157,1.0,2.0,87,0.00,,,0.01,Wunderground v.1.15,2013-04-02 17:54:00,
2013-04-02 11:00:00,53.7,49.6,30.21,SSW,197,1.0,1.0,86,0.00,,,0.01,Wunderground v.1.15,2013-04-02 18:00:00,
2013-04-02 11:07:00,53.4,50.5,30.21,West,273,2.0,4.0,90,0.00,,,0.01,Wunderground v.1.15,2013-04-02 18:07:00,
2013-04-02 11:12:00,53.0,50.7,30.21,West,277,3.0,3.0,92,0.00,,,0.01,Wunderground v.1.15,2013-04-02 18:12:00,
2013-04-02 11:17:00,52.7,50.4,30.21,WNW,303,2.0,4.0,92,0.00,,,0.01,Wunderground v.1.15,2013-04-02 18:17:00,
2013-04-02 11:22:00,52.4,50.4,30.22,WNW,282,2.0,4.0,93,0.00,,,0.01,Wunderground v.1.15,2013-04-02 18:22:00,
2013-04-02 11:28:00,52.3,50.3,30.22,WNW,286,1.0,4.0,93,0.00,,,0.01,Wunderground v.1.15,2013-04-02 18:28:00,
2013-04-02 11:33:00,52.2,50.5,30.22,WNW,286,2.0,2.0,94,0.00,,,0.01,Wunderground v.1.15,2013-04-02 18:33:00,
2013-04-02 11:38:00,52.1,50.4,30.22,West,271,3.0,6.0,94,0.00,,,0.01,Wunderground v.1.15,2013-04-02 18:38:00,
2013-04-02 11:44:00,51.7,50.0,30.22,WNW,287,4.0,5.0,94,0.00,,,0.01,Wunderground v.1.15,2013-04-02 18:44:00,
2013-04-02 11:50:00,51.5,50.1,30.22,West,281,3.0,3.0,95,0.00,,,0.01,Wunderground v.1.15,2013-04-02 18:50:00,
2013-04-02 11:55:00,51.5,50.1,30.22,West,281,2.0,4.0,95,0.00,,,0.01,Wunderground v.1.15,2013-04-02 18:55:00,
2013-04-02 12:01:00,51.5,49.8,30.22,NW,319,2.0,3.0,94,0.00,,,0.01,Wunderground v.1.15,2013-04-02 19:01:00,
2013-04-02 12:07:00,51.8,50.4,30.22,West,277,2.0,4.0,95,0.00,,,0.01,Wunderground v.1.15,2013-04-02 19:07:00,
2013-04-02 12:12:00,52.1,50.4,30.22,WNW,298,1.0,2.0,94,0.00,,,0.01,Wunderground v.1.15,2013-04-02 19:12:00,
2013-04-02 12:17:00,52.3,50.6,30.22,West,277,1.0,2.0,94,0.00,,,0.01,Wunderground v.1.15,2013-04-02 19:17:00,
2013-04-02 12:23:00,52.5,50.5,30.22,WNW,284,1.0,3.0,93,0.00,,,0.01,Wunderground v.1.15,2013-04-02 19:23:00,
2013-04-02 12:29:00,52.8,50.8,30.22,West,279,2.0,3.0,93,0.00,,,0.01,Wunderground v.1.15,2013-04-02 19:29:00,
2013-04-02 12:34:00,52.9,50.3,30.22,WNW,287,2.0,4.0,91,0.00,,,0.01,Wunderground v.1.15,2013-04-02 19:34:00,
2013-04-02 12:40:00,53.1,50.5,30.22,WNW,294,2.0,2.0,91,0.00,,,0.01,Wunderground v.1.15,2013-04-02 19:40:00,
2013-04-02 12:45:00,53.2,50.6,30.22,West,280,2.0,2.0,91,0.00,,,0.01,Wunderground v.1.15,2013-04-02 19:45:00,
2013-04-02 12:51:00,53.4,50.8,30.22,West,280,1.0,1.0,91,0.00,,,0.01,Wunderground v.1.15,2013-04-02 19:51:00,
2013-04-02 12:57:00,53.7,50.8,30.22,West,280,1.0,2.0,90,0.00,,,0.01,Wunderground v.1.15,2013-04-02 19:57:00,
2013-04-02 13:03:00,54.0,50.8,30.21,West,263,1.0,3.0,89,0.00,,,0.01,Wunderground v.1.15,2013-04-02 20:03:00,
2013-04-02 13:08:00,54.1,51.2,30.22,West,263,0.0,3.0,90,0.00,,,0.01,Wunderground v.1.15,2013-04-02 20:08:00,
2013-04-02 13:14:00,54.4,51.2,30.22,NNE,16,0.0,3.0,89,0.00,,,0.01,Wunderground v.1.15,2013-04-02 20:14:00,
2013-04-02 13:20:00,54.5,51.0,30.22,WNW,301,1.0,1.0,88,0.00,,,0.01,Wunderground v.1.15,2013-04-02 20:20:00,
2013-04-02 13:25:00,54.8,51.6,30.21,NNW,338,1.0,1.0,89,0.00,,,0.01,Wunderground v.1.15,2013-04-02 20:25:00,
2013-04-02 13:30:00,55.2,51.7,30.21,WNW,284,1.0,3.0,88,0.00,,,0.01,Wunderground v.1.15,2013-04-02 20:30:00,
2013-04-02 13:36:00,55.3,50.9,30.21,WNW,293,2.0,3.0,85,0.00,,,0.01,Wunderground v.1.15,2013-04-02 20:36:00,
2013-04-02 13:41:00,55.9,51.8,30.21,West,269,1.0,5.0,86,0.00,,,0.01,Wunderground v.1.15,2013-04-02 20:41:00,
2013-04-02 13:47:00,56.1,51.0,30.21,WNW,299,2.0,5.0,83,0.00,,,0.01,Wunderground v.1.15,2013-04-02 20:47:00,
2013-04-02 13:53:00,56.5,51.4,30.21,SSW,200,2.0,4.0,83,0.00,,,0.01,Wunderground v.1.15,2013-04-02 20:53:00,
2013-04-02 13:59:00,56.4,51.3,30.20,West,265,2.0,5.0,83,0.00,,,0.01,Wunderground v.1.15,2013-04-02 20:59:00,
2013-04-02 14:04:00,55.9,50.8,30.21,WNW,284,3.0,4.0,83,0.00,,,0.01,Wunderground v.1.15,2013-04-02 21:04:00,
2013-04-02 14:10:00,55.9,51.5,30.20,North,360,1.0,1.0,85,0.00,,,0.01,Wunderground v.1.15,2013-04-02 21:10:00,
2013-04-02 14:17:00,56.1,51.3,30.20,WNW,290,2.0,4.0,84,0.00,,,0.01,Wunderground v.1.15,2013-04-02 21:17:00,
2013-04-02 14:22:00,56.1,51.7,30.20,West,275,3.0,4.0,85,0.00,,,0.01,Wunderground v.1.15,2013-04-02 21:22:00,
2013-04-02 14:28:00,56.0,50.9,30.20,WNW,290,2.0,5.0,83,0.00,,,0.01,Wunderground v.1.15,2013-04-02 21:28:00,
2013-04-02 14:33:00,55.9,51.1,30.20,West,281,2.0,5.0,84,0.00,,,0.01,Wunderground v.1.15,2013-04-02 21:33:00,
2013-04-02 14:39:00,56.0,51.2,30.20,NNW,327,2.0,5.0,84,0.00,,,0.01,Wunderground v.1.15,2013-04-02 21:39:00,
2013-04-02 14:46:00,56.3,51.2,30.19,West,277,2.0,4.0,83,0.00,,,0.01,Wunderground v.1.15,2013-04-02 21:46:00,
2013-04-02 14:52:00,56.4,51.3,30.19,West,275,2.0,3.0,83,0.00,,,0.01,Wunderground v.1.15,2013-04-02 21:52:00,
2013-04-02 14:58:00,56.5,51.7,30.19,NW,306,2.0,3.0,84,0.00,,,0.01,Wunderground v.1.15,2013-04-02 21:58:00,
2013-04-02 15:03:00,56.6,52.5,30.18,NW,307,1.0,2.0,86,0.00,,,0.01,Wunderground v.1.15,2013-04-02 22:03:00,
2013-04-02 15:09:00,56.6,51.5,30.18,WNW,289,1.0,3.0,83,0.00,,,0.01,Wunderground v.1.15,2013-04-02 22:09:00,
2013-04-02 15:14:00,56.6,51.2,30.18,WNW,291,1.0,1.0,82,0.00,,,0.01,Wunderground v.1.15,2013-04-02 22:14:00,
2013-04-02 15:20:00,56.8,51.0,30.18,WNW,285,1.0,2.0,81,0.00,,,0.01,Wunderground v.1.15,2013-04-02 22:20:00,
2013-04-02 15:27:00,56.8,51.0,30.18,West,280,2.0,3.0,81,0.00,,,0.01,Wunderground v.1.15,2013-04-02 22:27:00,
2013-04-02 15:32:00,56.8,51.4,30.18,West,272,2.0,3.0,82,0.00,,,0.01,Wunderground v.1.15,2013-04-02 22:32:00,
2013-04-02 15:38:00,56.8,52.0,30.18,West,269,3.0,5.0,84,0.00,,,0.01,Wunderground v.1.15,2013-04-02 22:38:00,
2013-04-02 15:44:00,57.0,52.2,30.18,WNW,288,4.0,4.0,84,0.00,,,0.01,Wunderground v.1.15,2013-04-02 22:44:00,
2013-04-02 15:49:00,57.0,51.9,30.18,NNW,333,2.0,4.0,83,0.00,,,0.01,Wunderground v.1.15,2013-04-02 22:49:00,
2013-04-02 15:55:00,57.0,51.9,30.17,NW,316,1.0,3.0,83,0.00,,,0.01,Wunderground v.1.15,2013-04-02 22:55:00,
2013-04-02 16:02:00,56.8,52.0,30.17,NW,321,1.0,2.0,84,0.00,,,0.01,Wunderground v.1.15,2013-04-02 23:02:00,
2013-04-02 16:07:00,56.7,51.6,30.17,West,278,2.0,3.0,83,0.00,,,0.01,Wunderground v.1.15,2013-04-02 23:07:00,
2013-04-02 16:13:00,56.7,51.9,30.17,West,269,2.0,4.0,84,0.00,,,0.01,Wunderground v.1.15,2013-04-02 23:13:00,
2013-04-02 16:19:00,57.2,52.1,30.17,West,275,3.0,6.0,83,0.00,,,0.01,Wunderground v.1.15,2013-04-02 23:19:00,
2013-04-02 16:24:00,57.5,51.7,30.17,WNW,302,4.0,5.0,81,0.00,,,0.01,Wunderground v.1.15,2013-04-02 23:24:00,
2013-04-02 16:30:00,57.2,52.1,30.17,West,281,3.0,4.0,83,0.00,,,0.01,Wunderground v.1.15,2013-04-02 23:30:00,
2013-04-02 16:36:00,56.9,51.8,30.17,WNW,297,2.0,4.0,83,0.00,,,0.01,Wunderground v.1.15,2013-04-02 23:36:00,
2013-04-02 16:42:00,57.0,51.6,30.16,WNW,297,1.0,2.0,82,0.00,,,0.01,Wunderground v.1.15,2013-04-02 23:42:00,
2013-04-02 16:47:00,57.3,52.2,30.16,WNW,298,1.0,3.0,83,0.00,,,0.01,Wunderground v.1.15,2013-04-02 23:47:00,
2013-04-02 16:53:00,57.4,51.6,30.16,NNW,332,2.0,4.0,81,0.00,,,0.01,Wunderground v.1.15,2013-04-02 23:53:00,
2013-04-02 16:59:00,57.6,51.8,30.16,NNW,334,2.0,4.0,81,0.00,,,0.01,Wunderground v.1.15,2013-04-02 23:59:00,
2013-04-02 17:04:00,57.8,52.3,30.16,West,271,1.0,5.0,82,0.00,,,0.01,Wunderground v.1.15,2013-04-03 00:04:00,
2013-04-02 17:09:00,57.5,51.7,30.16,WNW,284,3.0,5.0,81,0.00,,,0.01,Wunderground v.1.15,2013-04-03 00:09:00,
2013-04-02 17:14:00,57.2,52.1,30.16,West,278,4.0,7.0,83,0.00,,,0.01,Wunderground v.1.15,2013-04-03 00:14:00,
2013-04-02 17:20:00,57.0,52.2,30.16,West,275,4.0,4.0,84,0.00,,,0.01,Wunderground v.1.15,2013-04-03 00:20:00,
2013-04-02 17:25:00,57.1,52.0,30.15,WNW,286,3.0,4.0,83,0.00,,,0.01,Wunderground v.1.15,2013-04-03 00:25:00,
2013-04-02 17:32:00,56.7,51.6,30.16,WNW,282,4.0,5.0,83,0.00,,,0.01,Wunderground v.1.15,2013-04-03 00:32:00,
2013-04-02 17:38:00,56.5,51.1,30.16,West,268,4.0,5.0,82,0.00,,,0.01,Wunderground v.1.15,2013-04-03 00:38:00,
2013-04-02 17:43:00,56.4,51.9,30.16,WNW,291,4.0,4.0,85,0.00,,,0.01,Wunderground v.1.15,2013-04-03 00:43:00,
2013-04-02 17:49:00,56.5,51.4,30.16,WNW,293,3.0,4.0,83,0.00,,,0.01,Wunderground v.1.15,2013-04-03 00:49:00,
2013-04-02 17:54:00,56.1,50.7,30.16,West,275,3.0,5.0,82,0.00,,,0.01,Wunderground v.1.15,2013-04-03 00:54:00,
2013-04-02 18:00:00,55.6,50.8,30.16,NW,304,3.0,3.0,84,0.00,,,0.01,Wunderground v.1.15,2013-04-03 01:00:00,
2013-04-02 18:06:00,55.1,50.4,30.16,West,272,3.0,6.0,84,0.00,,,0.01,Wunderground v.1.15,2013-04-03 01:06:00,
2013-04-02 18:11:00,54.3,49.9,30.16,WNW,294,4.0,4.0,85,0.00,,,0.01,Wunderground v.1.15,2013-04-03 01:11:00,
2013-04-02 18:17:00,53.9,49.5,30.16,West,270,5.0,8.0,85,0.00,,,0.01,Wunderground v.1.15,2013-04-03 01:17:00,
2013-04-02 18:23:00,53.1,49.3,30.16,West,265,5.0,6.0,87,0.00,,,0.01,Wunderground v.1.15,2013-04-03 01:23:00,
2013-04-02 18:28:00,52.4,48.9,30.16,West,278,5.0,6.0,88,0.00,,,0.01,Wunderground v.1.15,2013-04-03 01:28:00,
2013-04-02 18:33:00,52.1,49.0,30.16,West,265,4.0,6.0,89,0.00,,,0.01,Wunderground v.1.15,2013-04-03 01:33:00,
2013-04-02 18:39:00,51.8,48.7,30.16,West,275,4.0,6.0,89,0.00,,,0.01,Wunderground v.1.15,2013-04-03 01:39:00,
2013-04-02 18:45:00,51.6,48.5,30.17,West,272,4.0,6.0,89,0.00,,,0.01,Wunderground v.1.15,2013-04-03 01:45:00,
2013-04-02 18:50:00,51.5,48.4,30.17,West,273,4.0,4.0,89,0.00,,,0.01,Wunderground v.1.15,2013-04-03 01:50:00,
2013-04-02 18:56:00,51.3,48.2,30.17,West,273,4.0,5.0,89,0.00,,,0.01,Wunderground v.1.15,2013-04-03 01:56:00,
2013-04-02 19:01:00,51.2,48.1,30.17,West,280,4.0,5.0,89,0.00,,,0.01,Wunderground v.1.15,2013-04-03 02:01:00,
2013-04-02 19:07:00,51.1,48.0,30.17,WNW,290,4.0,5.0,89,0.00,,,0.01,Wunderground v.1.15,2013-04-03 02:07:00,
2013-04-02 19:13:00,51.0,47.9,30.17,West,279,3.0,4.0,89,0.00,,,0.01,Wunderground v.1.15,2013-04-03 02:13:00,
2013-04-02 19:19:00,50.9,47.5,30.17,West,273,4.0,7.0,88,0.00,,,0.01,Wunderground v.1.15,2013-04-03 02:19:00,
2013-04-02 19:25:00,50.8,47.7,30.17,West,271,4.0,5.0,89,0.00,,,0.01,Wunderground v.1.15,2013-04-03 02:25:00,
2013-04-02 19:30:00,50.7,47.6,30.17,West,281,2.0,2.0,89,0.00,,,0.01,Wunderground v.1.15,2013-04-03 02:30:00,
2013-04-02 19:36:00,50.6,47.5,30.16,West,281,0.0,2.0,89,0.00,,,0.01,Wunderground v.1.15,2013-04-03 02:36:00,
2013-04-02 19:41:00,50.6,47.5,30.16,West,279,0.0,1.0,89,0.00,,,0.01,Wunderground v.1.15,2013-04-03 02:41:00,
2013-04-02 19:47:00,50.5,47.7,30.16,WNW,282,2.0,5.0,90,0.00,,,0.01,Wunderground v.1.15,2013-04-03 02:47:00,
2013-04-02 19:53:00,50.5,47.7,30.16,WNW,283,2.0,2.0,90,0.00,,,0.01,Wunderground v.1.15,2013-04-03 02:53:00,
2013-04-02 19:59:00,50.5,48.0,30.16,NNE,29,1.0,3.0,91,0.00,,,0.01,Wunderground v.1.15,2013-04-03 02:59:00,
2013-04-02 20:04:00,50.5,48.0,30.16,NNE,28,1.0,2.0,91,0.00,,,0.01,Wunderground v.1.15,2013-04-03 03:04:00,
2013-04-02 20:09:00,50.5,48.0,30.16,West,273,1.0,2.0,91,0.00,,,0.01,Wunderground v.1.15,2013-04-03 03:09:00,
2013-04-02 20:15:00,50.5,48.0,30.16,West,278,1.0,3.0,91,0.00,,,0.01,Wunderground v.1.15,2013-04-03 03:15:00,
2013-04-02 20:20:00,50.5,48.0,30.16,West,277,2.0,2.0,91,0.00,,,0.01,Wunderground v.1.15,2013-04-03 03:20:00,
2013-04-02 20:25:00,50.4,47.9,30.17,West,279,2.0,3.0,91,0.00,,,0.01,Wunderground v.1.15,2013-04-03 03:25:00,
2013-04-02 20:30:00,50.4,47.9,30.17,West,279,2.0,2.0,91,0.00,,,0.01,Wunderground v.1.15,2013-04-03 03:30:00,
2013-04-02 20:36:00,50.4,47.9,30.17,West,279,1.0,3.0,91,0.00,,,0.01,Wunderground v.1.15,2013-04-03 03:36:00,
2013-04-02 20:42:00,50.3,47.8,30.16,West,279,0.0,0.0,91,0.00,,,0.01,Wunderground v.1.15,2013-04-03 03:42:00,
2013-04-02 20:47:00,50.3,47.8,30.16,West,279,0.0,1.0,91,0.00,,,0.01,Wunderground v.1.15,2013-04-03 03:47:00,
2013-04-02 20:53:00,50.2,47.7,30.16,West,279,0.0,0.0,91,0.00,,,0.01,Wunderground v.1.15,2013-04-03 03:53:00,
2013-04-02 20:59:00,50.2,48.0,30.17,West,279,0.0,0.0,92,0.00,,,0.01,Wunderground v.1.15,2013-04-03 03:59:00,
2013-04-02 21:00:00,50.2,48.0,30.17,West,279,0.0,1.0,92,0.00,,,0.01,Wunderground v.1.15,2013-04-03 04:00:00,
2013-04-02 21:01:00,50.2,48.0,30.17,West,279,0.0,1.0,92,0.00,,,0.01,Wunderground v.1.15,2013-04-03 04:01:00,
2013-04-02 21:05:00,50.2,48.0,30.17,West,279,0.0,1.0,92,0.00,,,0.01,Wunderground v.1.15,2013-04-03 04:05:00,
2013-04-02 21:10:00,50.2,48.0,30.17,West,279,0.0,0.0,92,0.00,,,0.01,Wunderground v.1.15,2013-04-03 04:10:00,
2013-04-02 21:16:00,50.2,48.0,30.17,West,279,0.0,0.0,92,0.00,,,0.01,Wunderground v.1.15,2013-04-03 04:16:00,
2013-04-02 21:21:00,50.2,48.0,30.17,West,279,0.0,0.0,92,0.00,,,0.01,Wunderground v.1.15,2013-04-03 04:21:00,
2013-04-02 21:27:00,50.1,47.9,30.17,West,279,0.0,0.0,92,0.00,,,0.01,Wunderground v.1.15,2013-04-03 04:27:00,
2013-04-02 21:32:00,50.1,47.9,30.17,West,279,0.0,0.0,92,0.00,,,0.01,Wunderground v.1.15,2013-04-03 04:32:00,
2013-04-02 21:37:00,50.0,47.8,30.17,South,175,0.0,2.0,92,0.00,,,0.01,Wunderground v.1.15,2013-04-03 04:37:00,
2013-04-02 21:43:00,49.9,47.7,30.17,South,175,0.0,0.0,92,0.00,,,0.01,Wunderground v.1.15,2013-04-03 04:43:00,
2013-04-02 21:48:00,49.9,47.7,30.17,South,175,0.0,0.0,92,0.00,,,0.01,Wunderground v.1.15,2013-04-03 04:48:00,
2013-04-02 21:54:00,49.9,47.7,30.17,South,175,0.0,0.0,92,0.00,,,0.01,Wunderground v.1.15,2013-04-03 04:54:00,
2013-04-02 21:59:00,49.9,48.0,30.17,South,175,0.0,0.0,93,0.00,,,0.01,Wunderground v.1.15,2013-04-03 04:59:00,
2013-04-02 22:05:00,49.9,48.0,30.17,South,175,0.0,0.0,93,0.00,,,0.01,Wunderground v.1.15,2013-04-03 05:05:00,
2013-04-02 22:10:00,49.9,48.0,30.17,South,175,0.0,0.0,93,0.00,,,0.01,Wunderground v.1.15,2013-04-03 05:10:00,
2013-04-02 22:16:00,49.8,47.9,30.17,South,175,0.0,0.0,93,0.00,,,0.01,Wunderground v.1.15,2013-04-03 05:16:00,
2013-04-02 22:22:00,49.8,47.9,30.17,South,175,0.0,0.0,93,0.00,,,0.01,Wunderground v.1.15,2013-04-03 05:22:00,
2013-04-02 22:27:00,49.7,47.8,30.17,South,175,0.0,0.0,93,0.00,,,0.01,Wunderground v.1.15,2013-04-03 05:27:00,
2013-04-02 22:33:00,49.7,47.8,30.17,South,175,0.0,0.0,93,0.00,,,0.01,Wunderground v.1.15,2013-04-03 05:33:00,
2013-04-02 22:39:00,49.7,47.8,30.17,South,175,0.0,0.0,93,0.00,,,0.01,Wunderground v.1.15,2013-04-03 05:39:00,
2013-04-02 22:45:00,49.6,47.7,30.17,South,175,0.0,0.0,93,0.00,,,0.01,Wunderground v.1.15,2013-04-03 05:45:00,
2013-04-02 22:50:00,49.6,47.7,30.17,South,175,0.0,0.0,93,0.00,,,0.01,Wunderground v.1.15,2013-04-03 05:50:00,
2013-04-02 22:56:00,49.5,47.6,30.17,South,175,0.0,0.0,93,0.00,,,0.01,Wunderground v.1.15,2013-04-03 05:56:00,
2013-04-02 23:02:00,49.5,47.6,30.17,South,175,0.0,0.0,93,0.00,,,0.01,Wunderground v.1.15,2013-04-03 06:02:00,
2013-04-02 23:08:00,49.5,47.6,30.17,South,175,0.0,0.0,93,0.00,,,0.01,Wunderground v.1.15,2013-04-03 06:08:00,
2013-04-02 23:13:00,49.4,47.7,30.17,South,175,0.0,2.0,94,0.00,,,0.01,Wunderground v.1.15,2013-04-03 06:13:00,
2013-04-02 23:19:00,49.4,47.7,30.16,South,175,0.0,2.0,94,0.00,,,0.01,Wunderground v.1.15,2013-04-03 06:19:00,
2013-04-02 23:25:00,49.3,47.6,30.16,South,175,0.0,0.0,94,0.00,,,0.01,Wunderground v.1.15,2013-04-03 06:25:00,
2013-04-02 23:30:00,49.3,47.6,30.16,South,175,0.0,0.0,94,0.00,,,0.01,Wunderground v.1.15,2013-04-03 06:30:00,
2013-04-02 23:35:00,49.2,47.5,30.17,NW,317,0.0,0.0,94,0.00,,,0.01,Wunderground v.1.15,2013-04-03 06:35:00,
2013-04-02 23:41:00,49.2,47.5,30.16,NW,317,0.0,0.0,94,0.00,,,0.01,Wunderground v.1.15,2013-04-03 06:41:00,
2013-04-02 23:47:00,49.2,47.5,30.16,NW,317,0.0,0.0,94,0.00,,,0.01,Wunderground v.1.15,2013-04-03 06:47:00,
2013-04-02 23:52:00,49.1,47.4,30.16,NW,317,0.0,0.0,94,0.00,,,0.01,Wunderground v.1.15,2013-04-03 06:52:00,
2013-04-02 23:58:00,49.0,47.3,30.17,SW,222,0.0,0.0,94,0.00,,,0.01,Wunderground v.1.15,2013-04-03 06:58:00,